Flag for Germany Weather past 2 weeks in Memmingen, Bavaria, Germany

Now
56 °F

Overcast.


Feels Like: 56 °F
Forecast: 39 / 53 °F
Wind: 1 mph from Southeast

Location: Kempten

Current Time: Sep 21, 2014 at 9:05:25 AM

Latest Report: Sep 21, 2014 at 8:00 AM


Visibility: 19 mi

Pressure: 30.01 "Hg

Humidity: 94%

Dew point: 54 °F

Location of MemmingenLocation

Historic Weather in Memmingen — Graph

°F

Memmingen temperature yesterday

Maximum temperature yesterday: 69 °F (at 3:00 PM)
Minimum temperature yesterday: 54 °F (at 6:00 AM)
Average temperature yesterday: 60 °F

Past Weeks' High & Low Weather Summary

 TemperatureHumidityPressure
High77 °F (Sep 8, 5:00 PM)99% (Sep 10, 1:00 AM)30.15 "Hg (Sep 10, 1:00 AM)
Low48 °F (Sep 17, 7:00 AM)38% (Sep 18, 2:00 PM)29.79 "Hg (Sep 17, 4:00 PM)
Average59 °F82%29.98 "Hg
* Reported Sep 6 8:00 AM — Sep 21 8:00 AM, Memmingen, Weather by CustomWeather, © 2014

Note: Actual official high and low records may vary slightly from our data, if they occured in-between our weather recording intervals... More about our weather records

Advertising

Memmingen weather history for previous 24 hours

 ConditionsComfort  
Time TempWeatherWind HumidityBarometerVisibility
8:00 AM
Sep 21
56 °FOvercast.1 mph94%30.01 "Hg19 mi
7:00 AM55 °FOvercast.2 mph95%30.01 "Hg22 mi
6:00 AM54 °FOvercast.2 mph97%30.03 "Hg13 mi
4:00 AM55 °FPassing clouds.2 mph97%30.03 "Hg11 mi
3:00 AM55 °FPassing clouds.2 mph96%30.04 "Hg10 mi
2:00 AM58 °FRain. Dense fog.3 mph89%30.05 "Hg1 mi
1:00 AM57 °FOvercast.1 mph91%30.04 "Hg18 mi
12:00 AM57 °FOvercast.2 mph91%30.04 "Hg19 mi
10:00 PM
Sep 20
58 °FPassing clouds.No wind90%30.03 "Hg17 mi
9:00 PM59 °FPassing clouds.1 mph87%30.03 "Hg19 mi
8:00 PM62 °FPassing clouds.1 mph80%29.99 "Hg22 mi
3:00 PM69 °FScattered clouds.3 mph66%29.96 "Hg28 mi
2:00 PM68 °FOvercast.3 mph67%29.97 "Hg22 mi
1:00 PM68 °FOvercast.2 mph69%29.97 "Hg28 mi
12:00 PM65 °FOvercast.2 mph80%29.99 "Hg19 mi
11:00 AM62 °FOvercast.2 mph83%30.01 "Hg18 mi
10:00 AM61 °FOvercast.1 mph87%30.01 "Hg19 mi
9:00 AM58 °FDrizzle. Overcast.1 mph88%30.03 "Hg19 mi
Weather by CustomWeather, © 2014

See weather overviewHow to use our weather pages